リニア彗星

277P/LINEAR (2005)

English version
Home page
Updated on October 3, 2020

---------------------------------------------------------------------

・ プロフィール

符号 277P/2005 YQ127
発見日 2005年12月28日
発見光度 18.0等
発見者 Lincoln Laboratory Near-Earth Asteroid Research project

・ 写真集

・ 軌道要素

Epoch 2005 Nov. 6.0 TT = JDT 2453680.5
T 2005 Nov. 3.96383 TT                                  MPC
q   1.9190782            (2000.0)            P               Q
n   0.12961704     Peri.  152.30625     +0.34397097     -0.89436629
a   3.8668854      Node   276.37790     +0.79951434     +0.43868785
e   0.5037147      Incl.   16.72484     +0.49240307     -0.08753231
P   7.60
From 160 observations 2005 Sept. 15-2013 Jan. 18, mean residual 0".6.

・ 星図

・ 光度変化

        m1 = 11.0 + 5 logΔ + 20.0 log r(t - 50)

---------------------------------------------------------------------

軌道要素はM.P.E.C. 2013-B18に掲載されたものです。
星図は StellaNavigator Ver.2.0 for Windows (アストロアーツ 編著 / アスキー出版局刊) で作成したものです。
光度グラフはComet for Windowsで作成したものです。

---------------------------------------------------------------------

Copyright(C) Seiichi Yoshida (comet@aerith.net). All rights reserved.